Voltar ao catálogo

THORAD AGENA D DEB

AtivoPO
NORAD 19948·DEBRIS·🇺🇸 United States

Lançado Apr 8, 1970 de Vandenberg Space Force Base

Loading…

Próximas Passagens (próximas 24 horas)

TLE

AtualizadoSource: Space-Track

Época: Sep 14, 2026, 09:18 UTC

1 19948U 70025QD  26257.38780363  .00000075  00000-0  36821-3 0  9990
2 19948  99.5730  81.0950 0411246 218.0063 263.3312 12.74887376650887

Acompanhe THORAD AGENA D DEB em tempo real com AllMySat

Download on the App Store